Wetbulb
44.70 46.74 47.63 47.87 46.99 46.85 46.78 45.78 43.91 42.36 41.98 41.10 40.55 40.26 40.11 40.44 40.82 41.66 41.82 41.84 42.04 42.11 42.45 42.68 41.92 41.62 41.15 40.59 40.58 40.05 39.58 39.04 40.70 39.89 38.92 39.05 39.93 39.68 39.77 40.15 39.68 39.33 39.78
40.83 44.51 46.10 45.93 45.85 45.31 46.25 44.78 44.21 41.98 42.30 42.08 41.45 41.79 40.70 40.33 41.00 41.47 41.32 41.69 41.58 41.81 41.56 42.03 41.84 41.24 40.28 40.15 40.24 40.24 39.11 39.67 39.81 39.77 39.38 36.77 38.08 38.77 39.02 39.65 38.86 38.18 39.11
38.12 41.70 44.26 45.14 45.11 44.10 44.22 44.30 43.39 42.36 42.41 42.19 41.15 40.28 40.51 40.25 40.09 40.22 40.66 40.86 41.19 41.43 41.45 41.16 41.24 40.85 40.88 40.11 40.29 40.38 40.31 39.33 38.80 39.45 41.10 37.02 36.50 36.42 38.43 37.72 38.17 37.77 37.66
37.12 40.31 43.01 43.70 44.07 43.91 44.03 44.36 43.14 42.37 42.12 42.21 41.84 41.23 40.92 39.38 39.97 40.31 40.33 40.23 40.51 40.53 40.76 40.66 40.39 40.74 40.74 40.15 40.36 40.15 40.23 40.10 39.41 38.35 37.46 38.25 39.20 36.50 33.71 36.72 37.02 37.40 36.55
37.26 39.42 41.69 43.15 43.41 42.16 42.21 42.82 42.71 42.25 42.30 42.19 42.41 41.61 40.31 40.27 39.75 39.44 39.43 39.36 39.38 39.83 39.63 40.02 39.81 39.87 40.24 40.53 40.20 39.65 39.27 39.24 39.17 38.67 37.54 37.25 37.56 37.63 37.20 33.18 34.41 36.07 36.27
37.73 39.39 40.95 42.13 41.89 41.19 40.48 40.82 41.95 41.87 41.80 41.90 41.74 41.46 40.85 39.77 38.95 38.34 38.61 38.61 38.73 38.99 38.67 38.55 39.03 39.22 39.02 38.83 39.22 39.38 38.90 38.47 38.30 38.07 37.47 37.96 38.04 36.67 36.19 33.84 33.55 34.98 34.67
35.59 37.90 39.14 40.07 40.39 40.10 39.81 40.08 41.00 40.80 41.34 41.35 41.19 41.22 40.90 40.36 40.22 39.03 38.58 37.76 37.82 37.83 38.12 38.04 37.73 37.85 38.04 37.82 37.58 37.45 37.42 37.36 37.56 37.28 37.04 37.07 36.94 36.37 35.50 35.38 33.18 33.80 34.94
34.45 34.58 37.09 38.65 39.81 40.06 39.48 40.11 40.01 40.20 40.76 40.89 41.14 41.12 40.99 40.60 40.37 39.75 39.06 38.69 38.67 38.65 38.20 37.73 37.72 37.33 37.15 36.92 36.57 36.49 36.16 36.15 36.10 35.86 35.91 35.74 35.89 36.21 35.86 35.82 34.11 31.93 33.14
32.71 34.05 35.93 36.17 37.68 38.69 39.20 39.35 39.51 39.74 40.16 40.65 40.78 40.53 40.60 40.24 40.18 39.76 39.54 39.00 38.61 38.26 37.81 37.53 36.95 36.81 36.80 36.50 36.16 36.05 35.36 35.48 35.31 35.27 35.45 35.20 35.04 35.56 35.54 35.27 35.80 36.00 31.28
32.57 32.97 34.28 35.65 37.48 37.93 38.39 38.88 39.21 39.47 39.74 40.13 40.31 40.56 40.42 40.46 40.62 39.99 39.10 38.79 38.69 38.52 37.50 36.74 36.48 36.23 36.13 35.96 35.81 35.14 34.66 34.82 34.42 34.71 34.57 34.24 34.23 34.53 34.93 34.94 34.67 34.55 33.65
32.02 31.61 32.39 34.00 35.30 36.54 37.52 38.06 38.47 38.67 39.02 39.61 39.96 40.25 40.54 40.50 40.45 39.93 39.70 39.24 38.69 38.03 37.30 36.65 35.97 35.79 35.39 35.38 35.18 34.79 34.09 34.08 34.12 33.99 34.21 33.43 33.65 33.65 33.80 34.33 34.19 33.82 34.03
31.21 31.04 31.29 32.07 32.66 33.28 34.24 35.20 36.45 37.61 38.20 38.75 39.09 39.27 39.75 39.93 39.77 39.74 39.84 39.37 38.60 38.05 37.70 36.67 35.95 35.64 35.38 35.07 34.76 34.10 34.20 33.61 32.97 33.34 33.23 32.57 32.84 32.80 33.06 33.25 32.16 32.32 32.62
29.88 29.93 30.02 30.59 31.44 31.69 31.91 32.14 33.10 33.94 35.31 36.49 37.44 37.77 37.98 38.27 38.46 38.64 38.75 38.56 38.22 37.65 37.15 36.54 35.81 35.53 35.53 34.72 34.92 34.84 34.16 33.90 33.72 33.00 32.96 32.23 32.16 31.03 31.35 31.57 31.36 31.32 30.82
29.46 29.01 28.31 29.86 31.05 31.72 31.85 31.43 31.48 32.11 33.29 34.42 35.11 35.66 36.16 36.49 36.75 37.06 37.25 37.48 37.45 36.75 36.31 36.33 36.00 35.69 35.35 35.04 34.80 34.66 34.31 33.89 33.92 33.61 33.37 32.15 31.71 31.37 30.79 30.69 30.56 30.31 30.02
26.36 24.53 24.37 28.19 28.46 28.98 31.36 31.84 31.95 31.74 31.40 32.53 33.37 34.16 35.50 35.48 35.29 35.05 35.58 36.05 35.92 36.33 36.28 35.78 35.51 35.19 35.09 34.89 34.67 34.38 33.66 33.04 32.63 32.61 32.22 32.24 32.35 32.96 32.11 30.54 30.18 29.80 29.39
18.83 25.34 26.20 24.46 26.22 28.46 30.37 31.46 31.85 32.05 32.43 30.20 29.94 32.02 32.88 33.37 33.66 34.01 33.88 34.26 34.38 34.68 34.81 34.15 33.82 33.16 34.23 36.86 37.07 34.62 32.69 32.11 31.67 31.02 31.07 31.86 33.35 33.98 34.58 33.55 32.83 31.78 29.27
12.21 15.45 25.15 27.28 28.55 25.69 28.55 30.92 31.29 32.03 30.15 28.18 28.46 29.03 30.21 30.38 31.29 31.78 31.16 31.48 31.83 32.90 32.94 32.58 32.68 32.49 33.60 37.92 37.63 35.46 32.66 32.83 32.33 31.13 30.59 30.58 32.51 34.17 34.06 34.94 34.54 33.67 33.29
17.79 20.24 23.83 22.84 24.94 24.37 25.73 30.37 30.81 30.14 29.69 28.89 28.76 30.20 30.96 29.87 29.35 29.95 30.51 30.65 31.36 32.19 32.06 32.12 32.66 32.51 33.33 38.60 38.59 37.54 32.69 31.82 31.31 32.03 31.34 30.58 31.31 32.09 31.66 32.26 30.77 31.17 31.42
8.88 9.17 8.01 10.81 16.70 22.95 21.37 23.04 29.59 29.65 28.50 28.93 29.99 31.88 32.02 31.20 30.57 30.00 30.07 30.88 30.76 31.08 31.38 31.38 31.15 31.21 32.50 37.89 38.05 35.99 31.51 30.77 30.08 29.75 29.97 30.11 30.20 32.21 33.28 29.31 28.01 27.83 28.56
5.89 9.72 11.99 7.69 9.51 19.10 21.43 22.85 26.87 28.42 27.28 28.43 29.56 30.84 31.90 31.24 31.11 30.58 29.85 30.21 31.11 30.44 30.92 30.82 31.16 32.17 31.23 36.24 37.96 33.91 29.38 27.84 28.02 28.63 28.94 32.20 30.32 33.01 33.70 28.74 28.19 26.80 27.95
4.35 7.27 6.81 8.76 14.19 22.77 23.16 25.45 26.39 26.46 27.90 29.03 29.70 29.53 29.24 30.76 31.55 30.62 30.92 29.59 29.86 29.65 29.44 29.21 28.89 29.75 30.17 31.08 37.31 34.51 29.46 28.42 27.28 26.98 26.75 29.46 32.88 33.07 34.04 32.08 29.43 28.95 30.01
1.69 2.52 2.61 4.53 7.93 12.98 16.73 21.74 25.67 23.94 26.50 26.69 27.28 27.43 27.89 28.99 29.95 29.46 28.71 28.69 28.64 27.69 27.00 27.41 27.00 28.38 29.35 32.31 34.12 36.98 32.90 31.68 27.88 26.92 27.74 28.69 32.76 32.78 33.47 33.71 32.10 32.51 32.12
-4.85 -6.15 -5.06 -1.31 2.57 4.45 8.40 9.89 14.10 17.47 19.05 23.53 25.24 26.18 27.03 28.09 29.04 27.88 27.10 26.85 26.74 26.35 25.38 25.28 24.93 25.10 26.49 27.78 31.43 32.51 34.71 33.18 28.34 28.78 28.76 29.92 32.52 33.13 33.16 33.52 33.09 33.05 31.11
-3.12 -8.78 -7.42 -4.41 -2.22 0.40 2.50 4.00 10.31 13.72 16.08 20.04 24.75 26.08 25.40 26.14 26.31 27.63 27.22 26.33 25.13 24.72 24.69 24.61 24.41 24.81 25.45 26.05 27.02 29.09 30.70 33.81 30.53 29.99 29.42 30.14 30.78 31.60 30.44 31.16 31.64 29.62 28.64
-7.71 -10.68 -10.46 -8.56 -4.43 -2.91 -1.12 1.02 6.72 10.84 13.36 16.93 20.60 22.77 25.05 24.85 25.40 26.34 26.16 26.07 26.21 26.25 25.00 25.25 25.62 24.44 24.14 25.27 27.30 27.51 27.31 28.48 31.25 28.96 28.31 27.95 27.88 27.87 28.02 27.30 27.01 26.65 27.11
-8.56 -7.69 -8.25 -8.79 -3.59 -2.93 -1.43 0.44 2.02 7.21 9.59 13.62 16.38 19.27 22.42 22.77 24.15 24.25 24.21 28.83 28.76 29.94 30.46 29.43 27.45 27.16 28.42 29.64 30.75 31.16 30.68 31.07 32.22 28.26 25.70 26.15 26.04 25.88 25.99 25.11 24.46 25.06 25.63
MSLP
1020.38 1020.81 1021.27 1021.79 1022.27 1022.93 1023.44 1023.94 1024.61 1025.34 1025.87 1026.56 1027.02 1027.42 1027.64 1027.98 1028.10 1028.16 1028.30 1028.46 1028.63 1028.85 1029.09 1029.43 1029.82 1030.16 1030.34 1030.67 1030.94 1031.22 1031.47 1031.97 1031.96 1031.77 1032.85 1033.43 1033.66 1033.77 1033.91 1033.97 1033.88 1033.89 1033.83
1020.29 1020.68 1021.19 1021.77 1022.17 1022.60 1023.20 1023.88 1024.41 1025.10 1025.65 1026.10 1026.64 1026.92 1027.44 1027.95 1028.12 1028.31 1028.41 1028.51 1028.66 1028.90 1029.15 1029.43 1029.83 1030.23 1030.62 1030.94 1031.06 1031.18 1031.63 1032.01 1032.28 1032.08 1032.38 1033.02 1033.85 1034.19 1034.53 1034.54 1034.46 1034.54 1034.38
1020.02 1020.51 1021.09 1021.47 1022.11 1022.52 1022.93 1023.54 1024.17 1024.79 1025.46 1026.08 1026.76 1027.32 1027.69 1028.12 1028.32 1028.46 1028.56 1028.71 1028.78 1028.96 1029.12 1029.42 1029.75 1030.18 1030.46 1030.75 1030.98 1031.17 1031.36 1031.71 1032.30 1032.24 1032.02 1032.61 1033.00 1033.97 1034.78 1035.09 1035.11 1035.02 1034.87
1019.81 1020.30 1020.92 1021.43 1021.85 1022.37 1022.89 1023.34 1023.94 1024.61 1025.28 1025.89 1026.31 1026.65 1027.01 1027.62 1027.88 1028.16 1028.48 1028.77 1028.93 1029.09 1029.29 1029.52 1029.77 1030.03 1030.36 1030.66 1030.86 1031.16 1031.34 1031.51 1031.78 1032.20 1032.24 1032.24 1032.33 1033.04 1034.36 1035.18 1035.52 1035.46 1035.37
1019.95 1020.27 1020.91 1021.43 1021.96 1022.42 1022.84 1023.33 1023.91 1024.56 1025.11 1025.63 1026.04 1026.52 1027.00 1027.38 1027.78 1028.16 1028.49 1028.82 1029.14 1029.28 1029.43 1029.58 1029.79 1030.00 1030.25 1030.48 1030.75 1031.11 1031.32 1031.44 1031.59 1031.74 1032.06 1032.35 1032.58 1032.73 1033.06 1034.25 1035.24 1035.66 1035.87
1020.61 1020.87 1021.27 1021.67 1022.16 1022.65 1023.14 1023.59 1024.03 1024.58 1025.10 1025.60 1026.00 1026.37 1026.75 1027.23 1027.67 1028.13 1028.45 1028.80 1029.10 1029.33 1029.54 1029.79 1029.98 1030.17 1030.34 1030.54 1030.77 1031.02 1031.23 1031.30 1031.47 1031.64 1031.76 1031.75 1032.00 1032.37 1032.73 1033.58 1034.62 1035.06 1035.94
1021.41 1021.50 1021.74 1022.06 1022.41 1022.80 1023.20 1023.63 1024.05 1024.56 1025.10 1025.56 1025.94 1026.22 1026.55 1026.95 1027.21 1027.62 1028.04 1028.52 1028.89 1029.15 1029.33 1029.61 1029.91 1030.13 1030.36 1030.62 1030.86 1031.06 1031.25 1031.43 1031.54 1031.69 1031.83 1031.92 1031.98 1032.20 1032.59 1032.98 1034.01 1034.58 1035.57
1022.32 1022.32 1022.45 1022.57 1022.77 1023.12 1023.42 1023.68 1023.98 1024.43 1024.94 1025.34 1025.61 1026.01 1026.35 1026.68 1026.96 1027.26 1027.64 1027.98 1028.28 1028.56 1029.06 1029.39 1029.69 1029.98 1030.33 1030.66 1030.92 1031.08 1031.25 1031.38 1031.58 1031.76 1031.96 1032.18 1032.31 1032.30 1032.44 1032.65 1033.25 1034.33 1035.06
1023.34 1023.25 1023.18 1023.14 1023.20 1023.39 1023.58 1023.77 1024.10 1024.49 1024.85 1025.17 1025.56 1025.86 1026.17 1026.47 1026.68 1026.92 1027.30 1027.59 1027.96 1028.32 1028.79 1029.13 1029.47 1029.83 1030.13 1030.42 1030.73 1030.94 1031.18 1031.38 1031.62 1031.80 1031.98 1032.14 1032.49 1032.59 1032.53 1032.76 1032.98 1033.04 1034.15
1024.08 1024.07 1024.08 1024.01 1023.97 1023.99 1024.00 1024.10 1024.33 1024.54 1024.81 1025.17 1025.49 1025.75 1025.99 1026.22 1026.44 1026.84 1027.10 1027.34 1027.69 1028.07 1028.50 1028.97 1029.36 1029.76 1030.07 1030.38 1030.65 1030.99 1031.35 1031.43 1031.82 1031.98 1032.10 1032.42 1032.76 1032.85 1033.04 1032.90 1033.14 1033.37 1033.60
1024.81 1024.92 1024.99 1024.89 1024.83 1024.71 1024.63 1024.64 1024.66 1024.82 1024.98 1025.15 1025.32 1025.47 1025.58 1025.83 1026.17 1026.49 1026.78 1027.09 1027.47 1027.85 1028.22 1028.59 1029.06 1029.46 1029.82 1030.18 1030.48 1030.81 1031.19 1031.40 1031.65 1031.91 1032.07 1032.47 1032.85 1033.08 1033.25 1033.43 1033.42 1033.58 1033.75
1025.44 1025.59 1025.61 1025.56 1025.51 1025.43 1025.46 1025.50 1025.39 1025.32 1025.39 1025.36 1025.42 1025.54 1025.67 1025.82 1026.04 1026.21 1026.32 1026.73 1026.99 1027.36 1027.61 1028.13 1028.58 1029.01 1029.40 1029.80 1030.11 1030.51 1030.88 1031.15 1031.56 1031.91 1032.21 1032.57 1032.74 1032.99 1033.27 1033.54 1033.79 1033.94 1034.15
1026.04 1026.26 1026.25 1026.26 1026.28 1026.36 1026.35 1026.22 1026.09 1026.04 1025.94 1025.81 1025.73 1025.71 1025.78 1025.88 1026.02 1026.18 1026.39 1026.65 1026.82 1027.05 1027.46 1027.84 1028.11 1028.49 1028.94 1029.39 1029.71 1029.98 1030.45 1030.94 1031.24 1031.73 1032.03 1032.46 1032.86 1033.23 1033.54 1033.74 1033.90 1034.19 1034.45
1026.80 1026.97 1026.98 1027.03 1027.00 1026.88 1026.81 1026.71 1026.61 1026.59 1026.42 1026.18 1026.02 1025.98 1025.97 1025.96 1026.03 1026.12 1026.25 1026.42 1026.63 1026.89 1027.11 1027.19 1027.52 1027.94 1028.45 1028.93 1029.42 1029.88 1030.30 1030.76 1031.08 1031.60 1031.97 1032.50 1032.80 1032.71 1033.24 1033.81 1034.17 1034.41 1034.67
1027.53 1027.65 1027.64 1027.61 1027.53 1027.43 1027.27 1027.18 1027.05 1026.95 1026.79 1026.57 1026.48 1026.44 1026.37 1026.28 1026.16 1026.15 1026.17 1026.24 1026.42 1026.49 1026.70 1027.07 1027.32 1027.58 1027.84 1028.26 1028.77 1029.31 1029.94 1030.46 1030.97 1031.53 1032.07 1032.44 1032.59 1032.78 1033.03 1033.42 1033.87 1034.28 1034.74
1028.46 1028.43 1028.23 1028.06 1027.80 1027.61 1027.42 1027.28 1027.18 1027.06 1027.05 1026.98 1026.89 1026.74 1026.56 1026.46 1026.54 1026.40 1026.26 1026.28 1026.35 1026.46 1026.60 1026.81 1027.08 1027.47 1027.67 1027.79 1028.28 1028.79 1029.47 1030.06 1030.71 1031.34 1031.96 1032.20 1032.41 1032.57 1032.74 1033.25 1033.76 1034.02 1034.24
1029.03 1029.17 1028.90 1028.58 1028.25 1027.92 1027.57 1027.38 1027.26 1027.15 1027.15 1027.08 1026.90 1026.83 1026.67 1026.58 1026.57 1026.66 1026.59 1026.40 1026.47 1026.61 1026.68 1026.87 1027.21 1027.49 1027.70 1027.67 1028.18 1028.91 1029.49 1030.06 1030.54 1031.16 1031.53 1031.85 1032.08 1032.37 1032.52 1032.97 1033.53 1033.90 1033.97
1029.96 1030.00 1029.75 1029.21 1028.59 1028.14 1027.79 1027.34 1027.21 1027.11 1027.01 1026.86 1026.69 1026.51 1026.52 1026.49 1026.52 1026.64 1026.71 1026.61 1026.42 1026.49 1026.75 1026.89 1027.20 1027.53 1027.87 1027.80 1028.18 1028.77 1029.65 1030.14 1030.41 1030.92 1031.37 1031.45 1031.74 1032.17 1032.49 1032.80 1033.39 1033.71 1033.92
1030.69 1030.79 1030.26 1029.66 1029.02 1028.57 1028.13 1027.68 1027.29 1027.08 1026.93 1026.75 1026.50 1026.17 1026.20 1026.26 1026.33 1026.39 1026.46 1026.54 1026.57 1026.60 1026.58 1026.81 1027.09 1027.36 1027.63 1027.54 1027.94 1028.51 1029.39 1029.85 1030.29 1030.62 1030.88 1031.17 1031.47 1031.78 1032.13 1032.68 1033.28 1033.81 1034.13
1031.21 1031.02 1030.44 1029.99 1029.39 1028.70 1028.21 1027.74 1027.24 1026.91 1026.70 1026.23 1026.00 1025.83 1025.77 1025.86 1025.94 1025.96 1026.06 1026.19 1026.33 1026.41 1026.57 1026.71 1026.92 1027.11 1027.34 1027.40 1027.50 1028.17 1028.76 1029.41 1029.93 1030.31 1030.65 1030.66 1031.22 1031.31 1031.72 1032.54 1032.95 1033.38 1033.60
1031.94 1031.60 1031.22 1030.73 1029.79 1028.81 1028.23 1027.80 1027.37 1026.94 1026.63 1026.30 1025.98 1025.70 1025.59 1025.53 1025.44 1025.54 1025.64 1025.75 1025.92 1026.11 1026.27 1026.47 1026.63 1026.93 1027.05 1027.31 1027.04 1027.67 1028.23 1028.79 1029.33 1029.70 1030.13 1030.40 1030.59 1030.89 1031.14 1032.01 1032.57 1032.81 1033.13
1032.55 1032.28 1032.01 1031.56 1030.85 1030.12 1029.29 1028.59 1027.82 1027.52 1026.88 1026.44 1025.95 1025.49 1025.24 1025.13 1025.04 1025.08 1025.18 1025.31 1025.49 1025.74 1025.94 1026.13 1026.41 1026.64 1026.86 1026.86 1026.92 1026.90 1027.73 1028.52 1028.94 1029.20 1029.61 1029.93 1029.98 1030.41 1030.66 1031.09 1031.94 1032.30 1032.66
1033.59 1033.26 1033.15 1032.65 1031.92 1031.31 1030.60 1029.90 1029.08 1028.20 1027.39 1026.40 1025.63 1025.28 1025.01 1024.82 1024.68 1024.69 1024.77 1024.97 1025.14 1025.30 1025.52 1025.75 1026.05 1026.30 1026.55 1026.70 1026.56 1026.88 1027.04 1027.56 1028.32 1028.62 1029.13 1029.55 1029.67 1029.97 1030.25 1030.69 1031.32 1031.62 1032.46
1034.00 1034.03 1033.93 1033.68 1033.04 1032.18 1031.40 1030.71 1029.74 1028.76 1027.76 1026.64 1025.59 1025.03 1024.90 1024.67 1024.54 1024.45 1024.42 1024.49 1024.68 1024.92 1025.12 1025.34 1025.60 1025.89 1026.16 1026.41 1026.62 1026.52 1026.65 1026.87 1027.59 1028.18 1028.70 1029.14 1029.50 1029.87 1030.36 1030.70 1030.88 1031.78 1032.36
1034.50 1034.46 1034.45 1034.10 1033.40 1032.63 1031.82 1030.88 1030.13 1029.15 1028.09 1027.03 1026.14 1025.45 1024.93 1024.65 1024.33 1024.27 1024.17 1024.13 1024.24 1024.37 1024.57 1024.79 1025.05 1025.34 1025.55 1025.65 1025.85 1026.02 1026.38 1026.85 1027.14 1027.74 1028.40 1028.89 1029.33 1029.72 1030.18 1030.65 1031.29 1031.84 1032.26
1034.66 1034.63 1034.33 1033.88 1033.20 1032.47 1031.78 1030.95 1030.31 1029.58 1028.71 1027.70 1026.85 1026.13 1025.37 1024.94 1024.55 1024.32 1024.18 1024.00 1024.03 1024.08 1024.10 1024.39 1024.66 1024.91 1025.15 1025.40 1025.55 1025.80 1026.06 1026.26 1026.72 1027.40 1027.95 1028.50 1029.02 1029.44 1030.00 1030.54 1031.16 1031.67 1032.05
Wind_Speed
5 8 10 10 10 9 11 12 11 10 8 4 4 3 3 2 2 3 4 4 5 6 6 5 7 6 7 8 9 9 12 8 7 8 9 9 9 10 8 8 8 10 10
7 9 10 10 12 13 12 12 11 12 8 6 3 2 3 2 2 2 3 4 5 6 6 7 6 7 7 8 7 6 4 3 1 3 2 4 4 7 7 7 8 10 8
10 9 12 12 11 12 13 13 12 12 9 8 6 5 5 3 2 2 2 2 4 5 6 7 7 8 7 7 7 5 3 3 2 2 1 3 3 3 3 7 6 8 7
6 6 11 11 12 11 9 11 11 12 9 10 6 7 4 4 3 3 2 3 3 4 5 6 7 8 6 7 7 5 2 2 2 2 2 2 3 3 4 3 4 6 7
5 7 8 8 6 7 9 8 10 10 10 10 7 6 4 3 3 3 5 4 3 3 4 5 6 7 6 7 7 6 5 3 2 2 2 2 2 2 3 4 4 4 4
6 6 5 7 7 6 7 7 10 9 9 9 8 8 8 6 5 4 5 4 3 3 3 4 4 4 4 6 6 5 5 5 3 3 3 3 3 3 3 3 3 3 3
6 6 5 5 6 7 7 7 9 8 9 9 9 9 8 8 8 7 6 6 5 4 6 5 5 4 4 4 5 5 4 4 3 4 3 2 2 2 3 3 3 3 3
7 7 6 4 4 5 5 6 8 7 8 9 9 7 7 6 6 7 6 6 6 5 7 6 6 5 6 5 5 4 4 5 4 5 4 4 3 2 2 3 5 3 2
8 8 8 6 5 4 4 5 5 4 6 7 6 7 7 8 7 8 6 5 6 5 7 7 7 7 7 7 7 5 5 5 4 6 6 5 4 3 4 3 2 3 4
8 8 9 8 7 6 3 2 3 4 4 5 6 6 7 7 6 5 7 8 6 7 7 8 8 8 7 7 7 6 6 7 5 4 6 5 4 5 4 5 4 2 3
6 6 7 7 7 7 7 6 4 1 1 2 3 5 6 7 6 7 7 8 6 8 8 9 9 9 9 8 8 7 8 8 7 7 7 7 6 4 4 4 4 4 2
5 5 6 7 8 9 8 8 7 6 5 3 2 3 4 4 6 7 8 7 9 9 10 10 10 10 10 10 10 9 9 9 9 8 7 7 5 6 5 4 5 4 4
6 6 7 8 8 8 7 7 7 7 6 4 3 1 1 3 4 5 5 6 7 8 9 10 11 11 10 10 9 9 9 9 9 8 8 8 7 6 4 4 5 4 4
5 6 6 7 7 7 7 7 7 6 6 5 5 4 2 3 3 4 5 6 7 8 9 11 11 11 11 10 9 9 9 8 8 8 7 8 8 9 8 6 6 5 5
5 4 4 5 5 5 6 7 7 8 8 7 6 5 4 4 3 3 4 5 6 8 8 9 9 9 11 9 11 11 10 10 9 7 7 6 7 10 10 7 8 8 5
1 3 3 4 6 6 6 6 7 6 4 5 4 5 4 3 4 4 3 3 4 4 5 7 8 9 7 16 18 13 10 10 9 7 7 7 10 11 13 11 12 10 9
3 2 3 4 5 4 3 6 7 6 5 4 4 4 3 3 3 4 4 5 5 4 6 6 7 8 7 16 16 17 9 9 9 10 8 7 7 10 9 12 13 11 10
3 2 3 5 6 4 5 5 6 7 6 5 4 3 4 4 3 4 5 4 5 8 7 8 8 7 6 17 19 18 8 8 9 7 11 10 10 8 8 9 8 7 6
2 3 3 3 4 7 6 5 7 6 6 7 5 4 4 5 6 7 7 6 5 5 7 7 9 9 8 17 18 16 10 8 9 9 9 9 9 13 15 10 9 7 5
2 4 7 3 3 6 5 6 7 7 7 7 7 6 6 7 7 8 8 6 6 7 6 7 8 13 10 17 19 14 8 10 8 9 8 16 11 17 17 9 9 8 7
5 5 5 5 6 9 7 7 7 8 8 7 7 5 5 8 9 8 7 7 8 7 8 8 7 9 10 10 16 20 9 8 8 7 7 6 18 18 18 15 8 7 7
6 7 7 7 7 10 8 8 6 11 10 10 10 7 7 7 7 9 7 8 8 8 8 8 7 7 7 14 13 16 17 15 9 9 7 8 18 18 17 14 13 13 10
4 3 5 6 6 7 5 6 9 10 11 11 11 9 8 7 7 7 7 7 7 7 7 7 7 7 7 6 15 16 22 20 9 7 10 14 17 18 14 15 15 14 7
5 4 5 6 6 6 6 4 8 10 9 10 9 8 7 6 5 6 6 7 7 6 7 7 7 6 7 7 7 8 6 18 12 13 10 12 12 11 8 9 10 7 6
3 2 3 3 5 5 5 5 7 8 8 8 7 7 5 6 4 6 6 6 6 8 7 7 7 7 7 9 13 9 5 3 8 10 7 7 7 7 6 5 7 5 5
4 4 4 3 5 5 6 7 7 7 6 7 7 7 5 4 3 3 3 7 10 14 16 14 9 6 11 13 17 18 20 19 15 8 7 7 7 8 7 7 7 5 7
Wind_Direction
197 184 184 174 160 159 158 162 155 156 146 142 134 124 123 112 92 92 111 123 129 133 136 131 133 137 136 133 124 112 117 108 106 102 86 75 69 66 62 63 65 61 59
180 179 176 173 178 173 173 166 165 163 166 157 134 133 142 122 109 122 118 133 137 139 143 147 148 148 137 140 141 139 136 103 21 105 114 129 109 67 55 60 64 60 58
187 178 180 181 177 177 176 172 168 168 165 145 124 100 96 95 122 138 134 134 139 143 143 154 159 160 158 162 167 158 151 139 96 73 81 143 133 135 63 56 60 60 58
173 160 174 180 182 184 173 169 164 164 163 161 158 161 159 156 179 159 144 135 140 143 152 155 165 170 172 175 182 181 161 156 148 144 86 63 127 154 151 97 64 64 60
160 161 167 168 167 161 172 164 158 161 164 174 171 163 162 143 138 138 145 144 133 148 159 168 167 173 181 187 188 186 200 192 178 173 153 129 84 100 141 151 146 98 60
77 100 122 137 141 146 148 152 163 171 168 176 176 179 173 165 155 162 170 170 165 161 163 161 174 174 177 184 193 197 197 188 175 172 176 176 169 171 152 129 143 150 123
69 92 112 136 149 161 162 162 168 174 177 182 187 191 189 182 185 180 182 177 174 186 186 173 172 174 178 176 169 177 181 182 187 167 167 166 156 137 122 121 124 146 145
44 54 67 95 133 153 166 172 175 172 180 188 199 192 190 196 198 193 192 197 197 188 175 180 178 174 165 160 156 147 143 142 136 135 124 117 106 138 144 145 149 130 134
43 45 46 54 77 122 159 179 177 179 191 200 190 198 197 199 204 203 202 204 198 189 182 182 179 176 172 169 163 160 149 146 140 134 130 119 105 99 106 114 142 146 159
47 41 40 38 43 46 57 123 173 197 195 195 203 212 212 211 210 200 212 212 206 193 182 184 183 178 176 172 167 158 156 150 145 140 134 120 112 102 90 100 100 90 124
52 45 41 39 43 46 40 42 45 37 239 224 218 211 209 208 201 209 217 217 202 197 195 191 185 184 181 178 173 169 162 160 156 154 148 134 134 117 109 101 95 91 95
55 50 48 48 44 41 37 34 28 32 16 351 267 240 236 211 208 215 215 202 212 201 197 188 188 186 184 180 179 174 175 168 167 164 153 146 140 130 128 116 104 99 75
58 40 41 42 37 32 29 30 28 21 14 9 6 344 254 219 235 242 237 219 216 206 198 191 191 188 187 184 185 181 172 173 168 167 163 155 149 136 128 125 127 117 103
85 69 61 55 45 36 28 20 15 13 9 10 4 347 312 249 248 251 239 228 216 207 203 197 192 185 180 178 175 170 168 166 164 162 159 161 172 156 154 155 145 135 128
104 56 57 46 27 19 27 20 17 10 0 1 358 346 326 301 264 237 234 231 215 213 204 197 197 183 177 175 171 168 168 165 155 154 166 174 180 174 168 159 161 154 146
160 112 53 19 26 19 7 1 1 358 358 350 335 327 335 336 307 286 227 203 200 193 179 184 179 176 183 182 176 164 164 157 155 154 183 183 179 177 175 168 168 165 154
234 201 34 12 350 312 316 341 336 335 329 319 318 308 288 276 264 271 240 203 191 173 174 159 160 169 174 176 175 175 158 164 167 183 178 179 187 179 168 167 171 170 159
45 38 337 339 327 323 322 325 323 312 309 301 281 279 276 267 241 213 233 228 187 181 182 174 174 168 180 187 187 175 159 171 181 187 200 190 180 176 170 158 158 170 157
254 250 257 267 310 327 317 300 294 297 294 291 274 252 242 253 231 223 216 208 194 193 183 178 176 179 182 191 185 172 172 181 188 192 188 185 175 183 171 160 167 175 182
345 350 336 307 320 324 318 328 309 292 281 265 260 249 228 233 240 229 208 199 202 203 193 189 191 197 191 208 206 171 169 174 179 181 191 191 185 190 186 178 175 179 182
357 8 357 348 322 354 343 336 328 306 291 289 284 263 235 239 246 230 215 202 203 195 194 194 187 197 192 205 217 171 169 177 178 178 182 195 196 197 197 182 182 186 171
359 10 11 359 344 358 355 348 351 348 335 319 298 269 250 239 242 226 210 204 196 193 190 187 185 197 198 208 229 199 179 184 183 187 185 189 199 199 200 189 189 194 177
351 346 5 347 342 349 355 354 333 334 325 311 304 295 269 244 228 212 206 200 192 194 188 186 189 188 193 209 209 227 185 190 183 174 184 190 201 196 199 181 189 202 165
9 352 3 2 343 337 337 306 320 329 320 325 318 301 261 254 223 218 208 201 192 192 191 191 193 189 188 196 212 221 228 194 178 184 193 191 195 192 184 204 196 154 168
333 347 353 324 309 312 320 322 331 330 340 335 331 328 291 268 228 222 211 208 209 202 197 200 194 188 197 202 203 197 194 198 180 167 164 180 186 184 175 154 155 157 166
336 348 329 330 325 337 340 341 336 342 343 347 343 336 328 307 285 243 230 242 219 223 218 207 196 200 210 211 213 212 214 213 194 169 176 181 185 182 177 172 171 173 181